This is the latest recevied weather packets stored in our database for station/object XE2KK-10. If no packets are shown the sender has not sent any weather packets the latest 10 day(s).
| Time | Temp. | Humidity | Pressure | Rain* | Wind** | Luminosity | Snow |
|---|---|---|---|---|---|---|---|
| 1777924453 | 27.78° C | 46% | 1011.9 hPa | 0 mm | - | 459 W/m² | - |
| 1777924152 | 27.78° C | 46% | 1012.1 hPa | 0 mm | - | 352 W/m² | - |
| 1777923852 | 27.78° C | 45% | 1011.9 hPa | 0 mm | - | 324 W/m² | - |
| 1777923553 | 28.33° C | 45% | 1012.2 hPa | 0 mm | - | 355 W/m² | - |
| 1777923253 | 27.22° C | 45% | 1012.2 hPa | 0 mm | - | 367 W/m² | - |
| 1777922952 | 27.78° C | 45% | 1012.3 hPa | 0 mm | - | 371 W/m² | - |
| 1777922653 | 28.33° C | 45% | 1012.5 hPa | 0 mm | - | 607 W/m² | - |
| 1777922352 | 28.33° C | 45% | 1012.7 hPa | 0 mm | - | 570 W/m² | - |
| 1777922052 | 27.78° C | 46% | 1012.7 hPa | 0 mm | - | 468 W/m² | - |
| 1777921753 | 27.22° C | 45% | 1012.8 hPa | 0 mm | - | 424 W/m² | - |
| 1777921453 | 27.22° C | 46% | 1012.6 hPa | 0 mm | - | 381 W/m² | - |
| 1777921152 | 27.22° C | 46% | 1012.7 hPa | 0 mm | - | 382 W/m² | - |
| 1777920852 | 27.22° C | 47% | 1012.8 hPa | 0 mm | - | 390 W/m² | - |
| 1777920552 | 27.22° C | 46% | 1012.7 hPa | 0 mm | - | 478 W/m² | - |
| 1777920252 | 27.22° C | 47% | 1013 hPa | 0 mm | - | 535 W/m² | - |
| 1777919953 | 27.22° C | 46% | 1012.7 hPa | 0 mm | - | 423 W/m² | - |
| 1777919652 | 26.67° C | 48% | 1012.8 hPa | 0 mm | - | 462 W/m² | - |
| 1777919352 | 26.67° C | 47% | 1013 hPa | 0 mm | - | 424 W/m² | - |
| 1777919052 | 26.67° C | 48% | 1013.1 hPa | 0 mm | - | 440 W/m² | - |
| 1777918753 | 26.67° C | 46% | 1013.3 hPa | 0 mm | - | 416 W/m² | - |
| 1777918453 | 26.11° C | 48% | 1013.1 hPa | 0 mm | - | 462 W/m² | - |
| 1777918153 | 26.11° C | 49% | 1013.1 hPa | 0 mm | - | 359 W/m² | - |
| 1777917852 | 26.11° C | 48% | 1013 hPa | 0 mm | - | 350 W/m² | - |
| 1777917552 | 26.11° C | 49% | 1013.2 hPa | 0 mm | - | 327 W/m² | - |
| 1777917252 | 25.56° C | 49% | 1013.4 hPa | 0 mm | - | 321 W/m² | - |
* Rain latest hour (hover to see other rain measurements)
** Current wind speed in m/s (hover to see current wind gust speed)